Location: Navajo
(48.7922°N, 105.0603°W)
Time: 05:25:12
(UTC+00:00)

KKS-1 - Pass Details

Date: 08 July 2022
Orbit: 634 x 649 km, 98.2° (Epoch: 18 August)

Event Time Altitude Azimuth Distance (km) Brightness Sun altitude
Rises 06:38:37 0° 0° (N) 2,977 ? -18.5°
Reaches altitude 10° 06:41:31 10° 341° (NNW) 2,059 ? -18.5°
Maximum altitude 06:44:19 17° 302° (WNW) 1,652 ? -18.6°
Drops below altitude 10° 06:47:07 10° 262° (W) 2,045 ? -18.6°
Enters shadow 06:49:09 - 247° (WSW) 2,655 ? -18.7°
